Weather History for KUXL - March, 2013

Change the Weather History Date:

Wednesday, March 6, 2013

  Actual Average (KLCH) Record (KLCH)
Temperature  
Mean Temperature 50 °F 59 °F  
Max Temperature 68 °F 69 °F 84 °F (1911)
Min Temperature 33 °F 49 °F 25 °F (1989)
Degree Days  
Heating Degree Days 14 7  
Month to date heating degree days 44  
Since 1 July heating degree days 1326  
Cooling Degree Days 0 1  
Month to date cooling degree days 6  
Year to date cooling degree days 29  
Moisture  
Dew Point 32 °F    
Average Humidity 56    
Maximum Humidity 93    
Minimum Humidity 19    
Precipitation  
Precipitation 0.00 in 0.13 in 3.10 in (1933)
Month to date precipitation 0.74  
Year to date precipitation 9.43  
Snow  
Snow 0.00 in 0.00 in 0.00 in ()
Month to date snowfall 0.0  
Since 1 July snowfall 0.1  
Snow Depth -    
Sea Level Pressure  
Sea Level Pressure 30.31 in    
Wind  
Wind Speed 6 mph (NNW)    
Max Wind Speed 14 mph    
Max Gust Speed 18 mph    
Visibility 10 miles    
Events      
T = Trace of Precipitation, MM = Missing Value Source: NWS Daily Summary

Daily Weather History Graph

Daily Weather History Graph

Search for Another Location

Airport or City:

Trip Planner

Search our weather history database for the weather conditions in past years. The results will help you decide how hot, cold, wet, or windy it might be!

Date:

Astronomy

Mar. 06, 2013 Rise Set
Actual Time 6:33 AM CST 6:16 PM CST
Civil Twilight 6:09 AM CST 6:40 PM CST
Nautical Twilight 5:41 AM CST 7:07 PM CST
Astronomical Twilight 5:14 AM CST 7:35 PM CST
Moon 2:25 AM CST (3/6) 1:15 PM CST (3/6)
Length of Visible Light 12h 30m
Length of Day
11h 42m
Waning Crescent, 29% of the Moon is Illuminated
Mar 6
Waning Crescent
Mar 11
New
Mar 19
First Quarter
Mar 27
Full
Apr 2
Last Quarter

Hourly Weather History & Observations

Time (CST) Temp. Windchill Dew Point Humidity Pressure Visibility Wind Dir Wind Speed Gust Speed Precip Events Conditions
12:15 AM 48.2 °F - 30.2 °F 50% 30.30 in 10.0 mi NNW 10.4 mph - N/A   Clear
12:35 AM 46.4 °F 42.4 °F 30.2 °F 53% 30.30 in 10.0 mi NNW 8.1 mph - N/A   Clear
12:55 AM 44.6 °F 40.2 °F 30.2 °F 57% 30.30 in 10.0 mi NNW 8.1 mph - N/A   Clear
1:15 AM 42.8 °F 38.6 °F 30.2 °F 61% 30.30 in 10.0 mi NNW 6.9 mph - N/A   Clear
1:35 AM 42.8 °F 39.3 °F 32.0 °F 66% 30.30 in 10.0 mi NNW 5.8 mph - N/A   Clear
1:55 AM 41.0 °F 37.1 °F 32.0 °F 70% 30.30 in 10.0 mi NNW 5.8 mph - N/A   Clear
2:15 AM 41.0 °F 38.0 °F 32.0 °F 70% 30.31 in 10.0 mi NNW 4.6 mph - N/A   Clear
2:35 AM 39.2 °F 35.9 °F 32.0 °F 75% 30.31 in 10.0 mi NW 4.6 mph - N/A   Clear
2:55 AM 37.4 °F 33.8 °F 32.0 °F 81% 30.31 in 10.0 mi NW 4.6 mph - N/A   Clear
3:15 AM 39.2 °F - 32.0 °F 75% 30.31 in 10.0 mi Calm Calm - N/A   Clear
3:35 AM 37.4 °F 33.8 °F 32.0 °F 81% 30.32 in 10.0 mi NW 4.6 mph - N/A   Clear
3:55 AM 37.4 °F 33.8 °F 32.0 °F 81% 30.32 in 10.0 mi NNW 4.6 mph - N/A   Clear
4:15 AM 37.4 °F 34.9 °F 32.0 °F 81% 30.33 in 10.0 mi NNW 3.5 mph - N/A   Clear
4:35 AM 35.6 °F 31.7 °F 32.0 °F 87% 30.33 in 10.0 mi NNW 4.6 mph - N/A   Clear
4:55 AM 35.6 °F 31.7 °F 32.0 °F 87% 30.34 in 10.0 mi NNW 4.6 mph - N/A   Clear
5:55 AM 33.8 °F 28.6 °F 30.2 °F 87% 30.35 in 10.0 mi NNW 5.8 mph - N/A   Clear
6:15 AM 35.6 °F 32.8 °F 30.2 °F 81% 30.36 in 10.0 mi NNW 3.5 mph - N/A   Clear
6:35 AM 35.6 °F - 30.2 °F 81% 30.37 in 10.0 mi Calm Calm - N/A   Clear
6:55 AM 35.6 °F - 30.2 °F 81% 30.38 in 10.0 mi Calm Calm - N/A   Clear
7:15 AM 35.6 °F 32.8 °F 32.0 °F 87% 30.39 in 10.0 mi WNW 3.5 mph - N/A   Clear
7:35 AM 37.4 °F 34.9 °F 33.8 °F 87% 30.39 in 10.0 mi NNW 3.5 mph - N/A   Clear
7:55 AM 42.8 °F 39.3 °F 33.8 °F 70% 30.39 in 10.0 mi NNW 5.8 mph - N/A   Clear
8:15 AM 44.6 °F 40.2 °F 32.0 °F 61% 30.40 in 10.0 mi North 8.1 mph - N/A   Clear
8:35 AM 46.4 °F 41.5 °F 30.2 °F 53% 30.40 in 10.0 mi North 10.4 mph - N/A   Clear
8:55 AM 50.0 °F - 28.4 °F 43% 30.40 in 10.0 mi North 12.7 mph - N/A   Clear
9:15 AM 50.0 °F - 28.4 °F 43% 30.40 in 10.0 mi North 13.8 mph 18.4 mph N/A   Clear
9:35 AM 51.8 °F - 28.4 °F 41% 30.41 in 10.0 mi NE 9.2 mph 17.3 mph N/A   Clear
9:55 AM 51.8 °F - 28.4 °F 41% 30.40 in 10.0 mi NNE 8.1 mph - N/A   Clear
10:15 AM 53.6 °F - 28.4 °F 38% 30.40 in 10.0 mi North 6.9 mph - N/A   Clear
10:35 AM 55.4 °F - 28.4 °F 36% 30.39 in 10.0 mi NNE 6.9 mph - N/A   Clear
10:55 AM 55.4 °F - 28.4 °F 36% 30.39 in 10.0 mi North 5.8 mph - N/A   Clear
11:15 AM 57.2 °F - 28.4 °F 33% 30.39 in 10.0 mi North 6.9 mph - N/A   Clear
11:35 AM 59.0 °F - 28.4 °F 31% 30.38 in 10.0 mi NNE 6.9 mph - N/A   Clear
11:55 AM 59.0 °F - 28.4 °F 31% 30.37 in 10.0 mi NW 6.9 mph - N/A   Clear
12:15 PM 60.8 °F - 28.4 °F 29% 30.36 in 10.0 mi NNW 5.8 mph - N/A   Clear
12:35 PM 60.8 °F - 28.4 °F 29% 30.34 in 10.0 mi North 6.9 mph - N/A   Clear
12:55 PM 62.6 °F - 28.4 °F 27% 30.33 in 10.0 mi North 12.7 mph - N/A   Clear
1:15 PM 64.4 °F - 28.4 °F 26% 30.32 in 10.0 mi NNW 9.2 mph - N/A   Clear
1:35 PM 64.4 °F - 28.4 °F 26% 30.30 in 10.0 mi North 8.1 mph - N/A   Clear
1:55 PM 64.4 °F - 26.6 °F 24% 30.30 in 10.0 mi North 11.5 mph - N/A   Clear
2:15 PM 64.4 °F - 23.0 °F 21% 30.28 in 10.0 mi North 11.5 mph 16.1 mph N/A   Clear
2:35 PM 66.2 °F - 24.8 °F 21% 30.28 in 10.0 mi NW 8.1 mph - N/A   Clear
2:55 PM 64.4 °F - 23.0 °F 21% 30.27 in 10.0 mi Calm Calm - N/A   Clear
3:15 PM 68.0 °F - 26.6 °F 21% 30.27 in 10.0 mi NW 6.9 mph - N/A   Clear
3:35 PM 68.0 °F - 24.8 °F 20% 30.26 in 10.0 mi North 10.4 mph - N/A   Clear
4:15 PM 66.2 °F - 23.0 °F 19% 30.26 in 10.0 mi NNW 6.9 mph - N/A   Clear
4:35 PM 64.4 °F - 24.8 °F 22% 30.25 in 10.0 mi NNW 6.9 mph - N/A   Clear
4:55 PM 64.4 °F - 24.8 °F 22% 30.25 in 10.0 mi North 6.9 mph - N/A   Clear
5:15 PM 62.6 °F - 26.6 °F 26% 30.25 in 10.0 mi North 4.6 mph - N/A   Clear
5:35 PM 60.8 °F - 28.4 °F 29% 30.25 in 10.0 mi North 4.6 mph - N/A   Clear
5:55 PM 60.8 °F - 28.4 °F 29% 30.26 in 10.0 mi Calm Calm - N/A   Clear
6:15 PM 59.0 °F - 30.2 °F 34% 30.26 in 10.0 mi NNW 3.5 mph - N/A   Clear
6:35 PM 57.2 °F - 30.2 °F 36% 30.27 in 10.0 mi Calm Calm - N/A   Clear
6:55 PM 53.6 °F - 35.6 °F 51% 30.27 in 10.0 mi Calm Calm - N/A   Clear
7:15 PM 51.8 °F - 32.0 °F 47% 30.26 in 10.0 mi NE 3.5 mph - N/A   Clear
7:35 PM 50.0 °F - 33.8 °F 54% 30.27 in 10.0 mi South 5.8 mph - N/A   Clear
7:55 PM 50.0 °F - 42.8 °F 76% 30.27 in 10.0 mi SSW 3.5 mph - N/A   Clear
8:15 PM 51.8 °F - 42.8 °F 71% 30.28 in 10.0 mi Calm Calm - N/A   Clear
8:35 PM 50.0 °F - 42.8 °F 76% 30.28 in 10.0 mi WSW 3.5 mph - N/A   Clear
8:55 PM 46.4 °F - 41.0 °F 81% 30.28 in 10.0 mi Calm Calm - N/A   Clear
9:15 PM 46.4 °F - 41.0 °F 81% 30.27 in 10.0 mi Calm Calm - N/A   Clear
9:35 PM 44.6 °F 43.1 °F 41.0 °F 87% 30.27 in 10.0 mi NE 3.5 mph - N/A   Clear
9:55 PM 42.8 °F - 41.0 °F 93% 30.27 in 10.0 mi Calm Calm - N/A   Clear
10:15 PM 44.6 °F - 41.0 °F 87% 30.26 in 10.0 mi Calm Calm - N/A   Clear
10:35 PM 42.8 °F 41.1 °F 41.0 °F 93% 30.27 in 10.0 mi WNW 3.5 mph - N/A   Clear
10:55 PM 42.8 °F - 41.0 °F 93% 30.27 in 10.0 mi Calm Calm - N/A   Clear
11:15 PM 42.8 °F - 41.0 °F 93% 30.26 in 10.0 mi Calm Calm - N/A   Clear
11:35 PM 44.6 °F - 42.8 °F 93% 30.25 in 10.0 mi Calm Calm - N/A   Clear
11:55 PM 42.8 °F 41.1 °F 41.0 °F 93% 30.26 in 10.0 mi NW 3.5 mph - N/A   Clear